Погода в Семьинском

Россия / Владимирская область     56°21′53″N   39°45′52″E
темп.,
°C
ветер,
м/с
пор.,
м/с
влажн.,
%
обл.,
%
осадки,
мм/ч
давл.,
гПа
погр.,
м
17 октября, вс
вс1700:00+5зюз410895 0.2 1013341
03:00+4юз411915 0.2 1012343
06:00+4ююз512925 0.0 1012370
09:00+5юз61286100 0.0 1012591
12:00+7зюз61076100 0.0 1012775
15:00+8зюз6971100 0.0 10111112
18:00+5юз4108480 0.0 1012328
21:00+5юз4129099 0.0 1011375
18 октября, пн
пн1800:00+4юз399228 0.0 1011214
03:00+5юз489196 0.0 1010349
06:00+5юз4109394 0.0 1009381
09:00+6юз598799 0.0 1008654
12:00+5зюз5891100 0.3 10081017
15:00+5з587510 0.7 1008693
18:00+3зюз49815 0.0 1009214
21:00+2зюз410835 0.0 1009310
19 октября, вт
вт1900:00+1зюз389182 0.0 1010177
03:00+3з4888100 0.1 1010424
06:00+2зсз478898 0.1 1011776
09:00+2зсз4993100 0.3 1012607
12:00+3ссз5672100 0.3 1014937
15:00+3ссз587699 0.6 1014897
18:00+2сз499198 0.2 1016491
21:00+1сз488782 0.3 1017550
20 октября, ср
ср2000:000зсз499339 0.0 1017311
03:00+1сз5877100 0.0 1018846
06:000сз4775100 0.0 1020869
09:00−1сз457793 0.1 1021616
12:00+1сз45575 0.0 1021900
15:00+1зсз34505 0.0 1021992
18:00−1юз2269100 0.0 102134
21:00−1ююз38755 0.0 1019189
21 октября, чт
чт2100:00−1ю51275100 0.0 1017347
03:00+1ю71580100 0.1 1014552
06:00+2ююз81878100 0.3 1010677
09:00+3ююз81787100 0.8 1008719
12:00+5ююз91786100 0.3 1005603
15:00+7ююз81876100 0.3 1003665
18:00+8ююз91873100 0.0 1001770
21:00+8юз81886100 1.4 999793